Regional Weather Roundup
Issued by NWS

Home | Current Version | Previous Version | Text Only | Print | Product List | Glossary Off
Versions: 1 2 3 4 5 6 7 8 9 10 11 12 13 14 15 16 17 18 19 20 21 22 23 24 25 26 27

000
ASUS45 KCYS 180310
RWRWY

WYOMING REGIONAL WEATHER ROUNDUP
NATIONAL WEATHER SERVICE CHEYENNE WY
900 PM MDT THU AUG 17 2017

NOTE:  "FAIR" INDICATES FEW OR NO CLOUDS BELOW 12,000 FEET
WITH NO SIGNIFICANT WEATHER AND/OR OBSTRUCTIONS TO VISIBILITY.

WYZ001-180400-
YELLOWSTONE NATIONAL PARK

CITY           SKY/WX    TMP DP  RH WIND       PRES   REMARKS
LK YELLOWSTONE   N/A     51  41  68 CALM      30.35R
W YELLOWSTONE  NOT AVBL

$$
WYZ002>013-054>058-071-098>099-180400-
NORTHERN WYOMING

CITY           SKY/WX    TMP DP  RH WIND       PRES   REMARKS
JACKSON        FAIR      70  32  24 CALM      30.26R
CODY           FAIR      68  40  35 W5        30.15R
GREYBULL       FAIR      79  32  18 N9        30.02R
WORLAND        FAIR      73  41  31 N7        30.04R
SHERIDAN       FAIR      63  47  55 SE5       30.04R
BUFFALO        FAIR      62  40  44 W6        30.12R
GILLETTE       FAIR      58  46  64 SW3       30.06R
HULETT         FAIR      63  46  55 S9        30.06R
NEWCASTLE      FAIR      59  45  58 N3        30.07R

$$
WYZ014>020-022>026-101>103-180400-
CENTRAL WYOMING

CITY           SKY/WX    TMP DP  RH WIND       PRES   REMARKS
BIG PINEY      FAIR      59  30  33 N10       30.30R
PINEDALE       FAIR      59  32  36 NW7       30.31R
DUBOIS         FAIR      63  30  29 W13       30.28R
LANDER           N/A    N/A N/A N/A MISG      30.12R
RIVERTON       FAIR      71  35  26 N7        30.13R
CASPER         FAIR      65  45  48 NE10      30.13R
DOUGLAS        FAIR      63  45  51 VRB3      30.13R

$$
WYZ021-027>030-104>119-180400-
SOUTHERN WYOMING

CITY           SKY/WX    TMP DP  RH WIND       PRES   REMARKS
EVANSTON       FAIR      65  29  25 W10       30.31R
KEMMERER         N/A    N/A N/A N/A W7        30.31R
FORT BRIDGER   FAIR      67  32  27 W7        30.32R
ROCK SPRINGS   FAIR      70  27  20 W13       30.25R
RAWLINS        FAIR      70  29  21 W13       30.21R
SARATOGA       MOCLDY    66  36  32 SW13      30.25S
LARAMIE        FAIR      61  38  42 NW9       30.25R
CHEYENNE       FAIR      67  42  40 W7        30.16R
TORRINGTON     FAIR      69  45  41 N9        30.04R
PINE BLUFFS    FAIR      64  45  48 N3        30.11R

$$




USA.gov is the U.S. government's official web portal to all federal, state and local government web resources and services.